{"data":{"norad_id":57456,"epoch":"2026-05-25T04:48:03.336768Z","epoch_age_seconds":68080,"freshness":"FRESH","line1":"1 57456U 23106E   26145.20003862  .00005363  00000+0  25838-3 0  9993","line2":"2 57456  34.9926 223.7435 0008746 146.3309 213.7961 15.18081788157378","mean_motion":15.18081788,"eccentricity":0.0008746,"inclination_deg":34.9926,"raan_deg":223.7435,"arg_perigee_deg":146.3309,"mean_anomaly_deg":213.7961,"bstar":0.00025838,"rev_number":15737,"period_min":94.856549323151,"perigee_km":505.6125491373,"apogee_km":517.66414417367,"semimajor_km":6889.7753466555,"source":"CELESTRAK","updated_at":"2026-05-25T13:38:00.073863Z"}}